MOOSE1 EFTP-EFKU

Flight info

Callsign MOOSE1
Flight time 0h 34m
Altitude 27000
Route ARBEV DCT NISPO
Aircraft F35/M-SDGIRUY/C

Departure

Time 2026-04-12 09:03
Airport Tampere-Pirkkala Airport (EFTP)

Arrival

Time 2026-04-12 09:38
Airport Kuopio Airport (EFKU)
Time Latitude Longitude Altitude Speed Heading
2026-04-12 08:51 61.40790 23.61586 375 ft 0 kts 307°
2026-04-12 08:56 61.40790 23.61585 375 ft 1 kts 307°
2026-04-12 08:56 61.40794 23.61572 374 ft 0 kts 304°
2026-04-12 08:57 61.40795 23.61564 374 ft 1 kts 275°
2026-04-12 08:57 61.40786 23.61540 374 ft 4 kts 225°
2026-04-12 08:57 61.40758 23.61480 373 ft 8 kts 225°
2026-04-12 08:58 61.40717 23.61365 370 ft 12 kts 246°
2026-04-12 08:58 61.40712 23.61185 373 ft 12 kts 275°
2026-04-12 08:58 61.40724 23.61021 374 ft 12 kts 279°
2026-04-12 08:58 61.40713 23.60812 372 ft 16 kts 255°
2026-04-12 08:59 61.40705 23.60574 370 ft 19 kts 281°
2026-04-12 08:59 61.40762 23.60364 376 ft 16 kts 316°
2026-04-12 08:59 61.40849 23.60197 378 ft 16 kts 314°
2026-04-12 08:59 61.40893 23.60090 384 ft 13 kts 305°
2026-04-12 09:00 61.40935 23.59936 387 ft 12 kts 294°
2026-04-12 09:00 61.40963 23.59765 388 ft 13 kts 283°
2026-04-12 09:00 61.40974 23.59588 391 ft 12 kts 272°
2026-04-12 09:00 61.40972 23.59397 390 ft 15 kts 262°
2026-04-12 09:01 61.40940 23.59172 390 ft 17 kts 250°
2026-04-12 09:01 61.40887 23.58938 389 ft 19 kts 243°
2026-04-12 09:01 61.40830 23.58693 390 ft 19 kts 244°
2026-04-12 09:01 61.40812 23.58613 391 ft 0 kts 249°
2026-04-12 09:02 61.40806 23.58580 392 ft 7 kts 249°
2026-04-12 09:03 61.40864 23.58511 391 ft 19 kts
2026-04-12 09:03 61.40998 23.58628 393 ft 38 kts 64°
2026-04-12 09:03 61.41442 23.60560 602 ft 227 kts 67°
2026-04-12 09:03 61.42280 23.64153 3194 ft 299 kts 66°
2026-04-12 09:04 61.43327 23.68322 8217 ft 343 kts 64°
2026-04-12 09:04 61.44577 23.72979 14213 ft 401 kts 63°
2026-04-12 09:04 61.45959 23.78516 19497 ft 455 kts 65°
2026-04-12 09:04 61.47458 23.84861 23204 ft 490 kts 65°
2026-04-12 09:05 61.49019 23.91468 26588 ft 515 kts 68°
2026-04-12 09:05 61.50441 23.98179 27814 ft 508 kts 69°
2026-04-12 09:05 61.51878 24.05011 27314 ft 510 kts 69°
2026-04-12 09:05 61.53388 24.11633 27304 ft 512 kts 64°
2026-04-12 09:06 61.55162 24.18144 27333 ft 515 kts 62°
2026-04-12 09:06 61.56920 24.24655 27334 ft 512 kts 67°
2026-04-12 09:06 61.58419 24.31448 27331 ft 514 kts 67°
2026-04-12 09:06 61.60046 24.38152 27351 ft 515 kts 65°
2026-04-12 09:07 61.61632 24.44886 27353 ft 514 kts 66°
2026-04-12 09:07 61.63485 24.51354 27343 ft 518 kts 58°
2026-04-12 09:07 61.65839 24.57151 27318 ft 524 kts 49°
2026-04-12 09:07 61.68435 24.62560 27345 ft 525 kts 48°
2026-04-12 09:08 61.70883 24.68110 27353 ft 522 kts 53°
2026-04-12 09:08 61.73301 24.73842 27360 ft 523 kts 50°
2026-04-12 09:08 61.75791 24.79440 27371 ft 522 kts 51°
2026-04-12 09:08 61.78221 24.85146 27378 ft 522 kts 51°
2026-04-12 09:09 61.80683 24.90845 27363 ft 524 kts 51°
2026-04-12 09:09 61.83142 24.96533 27370 ft 524 kts 51°
2026-04-12 09:09 61.85582 25.02254 27379 ft 523 kts 51°
2026-04-12 09:09 61.88028 25.07956 27379 ft 523 kts 51°
2026-04-12 09:10 61.90475 25.13687 27391 ft 521 kts 51°
2026-04-12 09:10 61.92899 25.19389 27394 ft 519 kts 51°
2026-04-12 09:10 61.95290 25.25016 27395 ft 520 kts 51°
2026-04-12 09:10 61.97707 25.30722 27397 ft 520 kts 51°
2026-04-12 09:11 62.00125 25.36449 27385 ft 520 kts 51°
2026-04-12 09:11 62.02540 25.42184 27370 ft 521 kts 51°
2026-04-12 09:11 62.04963 25.47948 27384 ft 522 kts 51°
2026-04-12 09:11 62.07381 25.53714 27390 ft 521 kts 51°
2026-04-12 09:12 62.09792 25.59484 27395 ft 521 kts 51°
2026-04-12 09:12 62.12201 25.65259 27399 ft 521 kts 51°
2026-04-12 09:12 62.13794 25.69086 27401 ft 521 kts 51°
2026-04-12 09:12 62.16202 25.74888 27405 ft 521 kts 51°
2026-04-12 09:13 62.18607 25.80695 27408 ft 521 kts 51°
2026-04-12 09:13 62.21012 25.86518 27406 ft 521 kts 51°
2026-04-12 09:13 62.23414 25.92349 27409 ft 521 kts 51°
2026-04-12 09:13 62.25811 25.98181 27406 ft 521 kts 52°
2026-04-12 09:14 62.28203 26.04019 27403 ft 521 kts 52°
2026-04-12 09:14 62.30596 26.09874 27403 ft 521 kts 52°
2026-04-12 09:14 62.32987 26.15736 27399 ft 521 kts 52°
2026-04-12 09:14 62.35369 26.21597 27406 ft 521 kts 52°
2026-04-12 09:15 62.37725 26.27406 27402 ft 521 kts 52°
2026-04-12 09:15 62.40104 26.33285 27399 ft 521 kts 52°
2026-04-12 09:15 62.42486 26.39192 26686 ft 517 kts 52°
2026-04-12 09:15 62.44829 26.45012 25936 ft 511 kts 52°
2026-04-12 09:16 62.47148 26.50796 25181 ft 504 kts 51°
2026-04-12 09:16 62.49437 26.56511 24466 ft 499 kts 51°
2026-04-12 09:16 62.51697 26.62171 23729 ft 494 kts 51°
2026-04-12 09:16 62.53931 26.67782 22904 ft 489 kts 51°
2026-04-12 09:17 62.56132 26.73320 22110 ft 483 kts 51°
2026-04-12 09:17 62.58316 26.78833 21327 ft 478 kts 51°
2026-04-12 09:17 62.60477 26.84300 20561 ft 476 kts 51°
2026-04-12 09:17 62.62615 26.89720 19820 ft 471 kts 51°
2026-04-12 09:18 62.64741 26.95123 19096 ft 468 kts 51°
2026-04-12 09:18 62.66846 27.00486 18341 ft 464 kts 51°
2026-04-12 09:18 62.68923 27.05821 17513 ft 460 kts 53°
2026-04-12 09:18 62.70596 27.11579 16689 ft 454 kts 63°
2026-04-12 09:19 62.72002 27.17691 15916 ft 450 kts 66°
2026-04-12 09:19 62.73258 27.23897 15164 ft 444 kts 71°
2026-04-12 09:19 62.74152 27.30310 14422 ft 441 kts 76°
2026-04-12 09:20 62.75953 27.42937 12834 ft 432 kts 73°
2026-04-12 09:20 62.76824 27.49158 12063 ft 427 kts 74°
2026-04-12 09:20 62.78484 27.61156 9798 ft 393 kts 74°
2026-04-12 09:21 62.79280 27.66742 8647 ft 378 kts 74°
2026-04-12 09:21 62.80050 27.72127 7577 ft 365 kts 74°
2026-04-12 09:21 62.80750 27.76981 6561 ft 287 kts 74°
2026-04-12 09:21 62.81360 27.81153 5628 ft 288 kts 75°
2026-04-12 09:22 62.82071 27.85268 4642 ft 292 kts 67°
2026-04-12 09:22 62.82961 27.89270 3775 ft 290 kts 65°
2026-04-12 09:22 62.84239 27.92223 3572 ft 260 kts 26°
2026-04-12 09:22 62.85995 27.92669 3441 ft 259 kts 352°
2026-04-12 09:23 62.87718 27.91580 3020 ft 259 kts 339°
2026-04-12 09:23 62.89349 27.90110 2621 ft 245 kts 337°
2026-04-12 09:23 62.90876 27.88735 2255 ft 229 kts 338°
2026-04-12 09:23 62.92300 27.87465 1901 ft 212 kts 338°
2026-04-12 09:24 62.93641 27.86272 1625 ft 201 kts 345°
2026-04-12 09:24 62.95035 27.86359 1626 ft 212 kts 13°
2026-04-12 09:24 62.96569 27.87071 1671 ft 233 kts 11°
2026-04-12 09:24 62.98140 27.86659 1647 ft 230 kts 337°
2026-04-12 09:25 62.99659 27.85530 1636 ft 231 kts 343°
2026-04-12 09:25 63.01198 27.84511 1652 ft 229 kts 343°
2026-04-12 09:25 63.02687 27.83535 1658 ft 224 kts 342°
2026-04-12 09:25 63.04076 27.82139 1535 ft 212 kts 318°
2026-04-12 09:26 63.04608 27.79521 1258 ft 187 kts 259°
2026-04-12 09:26 63.03893 27.77449 1116 ft 170 kts 192°
2026-04-12 09:26 63.02696 27.77917 604 ft 188 kts 155°
2026-04-12 09:26 63.01526 27.79028 329 ft 173 kts 156°
2026-04-12 09:27 63.00177 27.80289 1413 ft 228 kts 157°
2026-04-12 09:27 62.98710 27.81593 3057 ft 228 kts 159°
2026-04-12 09:27 62.97163 27.82896 3842 ft 243 kts 159°
2026-04-12 09:27 62.95590 27.84143 4124 ft 242 kts 160°
2026-04-12 09:28 62.94010 27.85314 4264 ft 241 kts 161°
2026-04-12 09:28 62.92460 27.86626 4439 ft 241 kts 147°
2026-04-12 09:28 62.91262 27.89077 4422 ft 242 kts 125°
2026-04-12 09:28 62.90585 27.92441 4425 ft 245 kts 103°
2026-04-12 09:29 62.90524 27.96149 4434 ft 248 kts 82°
2026-04-12 09:29 62.91095 27.99712 4449 ft 248 kts 60°
2026-04-12 09:29 62.92104 28.02829 4433 ft 250 kts 57°
2026-04-12 09:29 62.93030 28.06045 4442 ft 249 kts 62°
2026-04-12 09:30 62.94398 28.08226 4400 ft 258 kts
2026-04-12 09:30 62.96074 28.07067 4400 ft 262 kts 335°
2026-04-12 09:30 62.97722 28.05384 4449 ft 265 kts 336°
2026-04-12 09:30 62.99417 28.03892 4429 ft 263 kts 340°
2026-04-12 09:31 63.01081 28.02266 4431 ft 264 kts 333°
2026-04-12 09:31 63.02713 28.00323 3856 ft 266 kts 330°
2026-04-12 09:31 63.04287 27.98384 3435 ft 251 kts 332°
2026-04-12 09:31 63.05876 27.96721 3252 ft 255 kts 336°
2026-04-12 09:32 63.07487 27.95120 3183 ft 254 kts 334°
2026-04-12 09:32 63.09084 27.93411 3151 ft 255 kts 333°
2026-04-12 09:32 63.10682 27.91684 3158 ft 256 kts 334°
2026-04-12 09:32 63.12269 27.90016 3144 ft 257 kts 334°
2026-04-12 09:33 63.13876 27.88334 3154 ft 255 kts 334°
2026-04-12 09:33 63.15489 27.86618 3169 ft 256 kts 334°
2026-04-12 09:33 63.17091 27.84911 3202 ft 257 kts 334°
2026-04-12 09:33 63.18587 27.82837 3185 ft 253 kts 310°
2026-04-12 09:34 63.19312 27.79367 3203 ft 252 kts 272°
2026-04-12 09:34 63.19176 27.75534 3198 ft 248 kts 256°
2026-04-12 09:34 63.18636 27.71918 3189 ft 246 kts 243°
2026-04-12 09:34 63.17801 27.68698 3220 ft 242 kts 223°
2026-04-12 09:35 63.16340 27.67018 3272 ft 242 kts 186°
2026-04-12 09:35 63.14694 27.67212 3223 ft 238 kts 168°
2026-04-12 09:35 63.13094 27.68103 3185 ft 235 kts 159°
2026-04-12 09:35 63.11581 27.69597 3121 ft 239 kts 155°
2026-04-12 09:36 63.10072 27.71048 2679 ft 231 kts 156°
2026-04-12 09:36 63.08634 27.72408 2241 ft 218 kts 157°
2026-04-12 09:36 63.07291 27.73652 1873 ft 200 kts 157°
2026-04-12 09:36 63.06082 27.74779 1529 ft 176 kts 156°
2026-04-12 09:37 63.04997 27.75802 1208 ft 165 kts 156°
2026-04-12 09:37 63.03967 27.76763 900 ft 158 kts 156°
2026-04-12 09:37 63.02992 27.77671 642 ft 147 kts 156°
2026-04-12 09:37 63.01999 27.78585 402 ft 157 kts 156°
2026-04-12 09:38 63.01102 27.79418 329 ft 119 kts 156°
2026-04-12 09:38 63.00445 27.80025 308 ft 81 kts 157°
2026-04-12 09:38 63.00127 27.80258 308 ft 34 kts 187°
2026-04-12 09:38 62.99961 27.80129 318 ft 19 kts 252°
2026-04-12 09:39 63.00036 27.79953 318 ft 17 kts 337°
2026-04-12 09:39 63.00153 27.79840 314 ft 20 kts 325°
2026-04-12 09:39 63.00234 27.79589 310 ft 20 kts 271°
2026-04-12 09:39 63.00201 27.79318 314 ft 16 kts 295°
2026-04-12 09:40 63.00263 27.79202 315 ft 2 kts 283°
2026-04-12 09:40 63.00261 27.79177 315 ft 0 kts 251°